QPF
0.00 0.00 0.00 0.00 0.00 0.00 0.00 0.00 0.00 0.00 0.00 0.00 0.00 0.00 0.00 0.00 0.00 0.00 0.00 0.00 0.00 0.00 0.00 0.00 0.00 0.00 0.00 0.00 0.00 0.00 0.00 0.00 0.00 0.00 0.00 0.00 0.00 0.00 0.00 0.00 0.00 0.00
0.00 0.00 0.00 0.00 0.00 0.00 0.00 0.00 0.00 0.00 0.00 0.00 0.00 0.00 0.00 0.00 0.00 0.00 0.00 0.00 0.00 0.00 0.00 0.00 0.00 0.00 0.00 0.00 0.00 0.00 0.00 0.00 0.00 0.00 0.00 0.00 0.00 0.00 0.00 0.00 0.00 0.00
0.00 0.00 0.00 0.00 0.00 0.00 0.00 0.00 0.00 0.00 0.00 0.00 0.00 0.00 0.00 0.00 0.00 0.00 0.00 0.00 0.00 0.00 0.00 0.00 0.00 0.00 0.00 0.00 0.00 0.00 0.00 0.00 0.00 0.00 0.00 0.00 0.00 0.00 0.00 0.00 0.00 0.00
0.00 0.00 0.00 0.00 0.00 0.00 0.00 0.00 0.00 0.00 0.00 0.00 0.00 0.00 0.00 0.00 0.00 0.00 0.00 0.00 0.00 0.00 0.00 0.00 0.00 0.00 0.00 0.00 0.00 0.00 0.00 0.00 0.00 0.00 0.00 0.00 0.00 0.00 0.00 0.00 0.00 0.00
0.00 0.00 0.00 0.00 0.00 0.00 0.00 0.00 0.00 0.00 0.00 0.00 0.00 0.00 0.00 0.00 0.00 0.00 0.00 0.00 0.00 0.00 0.00 0.00 0.00 0.00 0.00 0.00 0.00 0.00 0.00 0.00 0.00 0.00 0.00 0.00 0.00 0.00 0.00 0.00 0.00 0.00
0.00 0.00 0.00 0.00 0.00 0.00 0.00 0.00 0.00 0.00 0.00 0.00 0.00 0.00 0.00 0.00 0.00 0.00 0.00 0.00 0.00 0.00 0.00 0.00 0.00 0.00 0.00 0.00 0.00 0.00 0.00 0.00 0.00 0.00 0.00 0.00 0.00 0.00 0.00 0.00 0.00 0.00
0.00 0.00 0.00 0.01 0.00 0.00 0.00 0.00 0.00 0.00 0.00 0.00 0.00 0.00 0.00 0.00 0.00 0.00 0.00 0.00 0.00 0.00 0.00 0.00 0.00 0.00 0.00 0.00 0.00 0.00 0.00 0.00 0.00 0.00 0.00 0.00 0.00 0.00 0.00 0.00 0.00 0.00
0.00 0.01 0.07 0.00 0.00 0.00 0.00 0.00 0.00 0.00 0.00 0.00 0.00 0.00 0.00 0.00 0.00 0.00 0.00 0.00 0.00 0.00 0.00 0.00 0.00 0.00 0.00 0.00 0.00 0.00 0.00 0.00 0.00 0.00 0.00 0.00 0.00 0.00 0.00 0.00 0.00 0.00
0.02 0.01 0.01 0.01 0.00 0.00 0.00 0.00 0.00 0.00 0.00 0.00 0.00 0.00 0.00 0.00 0.00 0.00 0.00 0.00 0.00 0.00 0.00 0.00 0.00 0.00 0.00 0.00 0.00 0.00 0.00 0.00 0.00 0.00 0.00 0.00 0.00 0.00 0.00 0.00 0.00 0.00
0.01 0.03 0.03 0.01 0.00 0.00 0.00 0.00 0.00 0.00 0.00 0.00 0.00 0.00 0.00 0.00 0.00 0.00 0.00 0.00 0.00 0.00 0.00 0.00 0.00 0.00 0.00 0.00 0.00 0.00 0.00 0.00 0.00 0.00 0.00 0.00 0.00 0.00 0.00 0.00 0.00 0.00
0.01 0.03 0.04 0.00 0.01 0.00 0.00 0.00 0.00 0.00 0.00 0.00 0.00 0.00 0.00 0.00 0.00 0.00 0.00 0.00 0.00 0.00 0.00 0.00 0.00 0.00 0.00 0.00 0.00 0.00 0.00 0.00 0.00 0.00 0.00 0.00 0.00 0.00 0.00 0.00 0.00 0.00
0.03 0.14 0.10 0.02 0.00 0.01 0.00 0.00 0.00 0.00 0.00 0.00 0.00 0.00 0.00 0.00 0.00 0.00 0.00 0.00 0.00 0.00 0.00 0.00 0.00 0.00 0.00 0.00 0.00 0.00 0.00 0.00 0.00 0.00 0.00 0.00 0.00 0.00 0.00 0.00 0.00 0.00
0.03 0.07 0.01 0.01 0.00 0.00 0.00 0.01 0.00 0.00 0.00 0.00 0.00 0.00 0.00 0.00 0.00 0.00 0.00 0.00 0.00 0.00 0.00 0.00 0.00 0.00 0.00 0.00 0.00 0.00 0.00 0.00 0.00 0.00 0.00 0.00 0.00 0.00 0.00 0.00 0.00 0.00
0.11 0.26 0.27 0.23 0.38 0.10 0.02 0.02 0.02 0.00 0.00 0.00 0.00 0.00 0.00 0.00 0.00 0.00 0.00 0.00 0.00 0.00 0.00 0.00 0.01 0.00 0.01 0.02 0.01 0.01 0.01 0.00 0.00 0.00 0.00 0.00 0.00 0.00 0.01 0.00 0.00 0.02
0.12 0.26 0.30 0.38 0.25 0.14 0.37 0.52 0.36 0.05 0.01 0.00 0.00 0.00 0.00 0.00 0.00 0.00 0.00 0.00 0.00 0.00 0.03 0.05 0.08 0.24 0.36 0.53 0.08 0.07 0.06 0.00 0.01 0.01 0.03 0.01 0.01 0.03 0.06 0.18 0.17 0.06
0.05 0.14 0.12 0.11 0.07 0.01 0.18 0.31 0.15 0.03 0.01 0.01 0.00 0.01 0.00 0.00 0.00 0.00 0.00 0.00 0.00 0.00 0.15 0.04 0.37 0.40 0.12 0.03 0.00 0.00 0.01 0.03 0.03 0.12 0.36 0.28 0.08 0.19 0.22 0.40 0.32 0.29
0.05 0.05 0.02 0.03 0.06 0.14 0.12 0.10 0.06 0.08 0.08 0.04 0.01 0.03 0.00 0.00 0.00 0.02 0.00 0.02 0.12 0.04 0.03 0.49 0.69 0.23 0.03 0.01 0.01 0.01 0.00 0.02 0.07 0.08 0.23 0.24 0.24 0.09 0.38 0.17 0.27 0.41
0.11 0.05 0.01 0.01 0.01 0.00 0.02 0.08 0.07 0.09 0.04 0.02 0.02 0.04 0.01 0.00 0.00 0.02 0.04 0.00 0.01 0.23 0.14 0.07 0.05 0.11 0.01 0.01 0.01 0.00 0.00 0.00 0.00 0.03 0.49 0.01 0.05 0.03 0.13 0.07 0.18 0.22
0.04 0.03 0.04 0.01 0.01 0.00 0.01 0.01 0.01 0.01 0.02 0.04 0.03 0.01 0.00 0.02 0.00 0.00 0.00 0.00 0.00 0.02 0.27 0.19 0.15 0.11 0.02 0.01 0.00 0.00 0.00 0.00 0.00 0.00 0.00 0.02 0.00 0.00 0.01 0.02 0.04 0.07
0.03 0.01 0.02 0.05 0.03 0.02 0.03 0.01 0.04 0.03 0.01 0.01 0.00 0.00 0.00 0.00 0.00 0.03 0.02 0.00 0.01 0.00 0.09 0.11 0.04 0.01 0.00 0.00 0.00 0.00 0.00 0.00 0.00 0.01 0.00 0.00 0.00 0.00 0.00 0.00 0.00 0.00
0.01 0.00 0.06 0.03 0.05 0.01 0.04 0.03 0.03 0.02 0.00 0.00 0.00 0.00 0.00 0.01 0.06 0.11 0.13 0.06 0.07 0.00 0.00 0.00 0.00 0.00 0.00 0.00 0.00 0.00 0.00 0.00 0.00 0.00 0.00 0.00 0.00 0.00 0.00 0.00 0.00 0.00
0.00 0.00 0.00 0.00 0.00 0.00 0.00 0.03 0.03 0.01 0.01 0.01 0.04 0.03 0.05 0.04 0.02 0.03 0.05 0.05 0.08 0.00 0.00 0.00 0.00 0.00 0.00 0.00 0.00 0.00 0.00 0.00 0.00 0.00 0.00 0.00 0.00 0.00 0.00 0.00 0.00 0.00
0.00 0.00 0.00 0.00 0.00 0.00 0.00 0.00 0.00 0.01 0.04 0.03 0.01 0.03 0.03 0.02 0.01 0.06 0.03 0.03 0.12 0.04 0.01 0.00 0.00 0.00 0.00 0.00 0.00 0.00 0.00 0.00 0.00 0.00 0.00 0.00 0.00 0.00 0.00 0.00 0.00 0.00
0.00 0.00 0.00 0.00 0.00 0.00 0.00 0.00 0.00 0.00 0.00 0.01 0.05 0.05 0.05 0.05 0.11 0.03 0.06 0.05 0.03 0.02 0.00 0.00 0.00 0.00 0.00 0.00 0.00 0.00 0.00 0.00 0.00 0.00 0.00 0.00 0.00 0.00 0.00 0.00 0.00 0.00
0.00 0.00 0.00 0.00 0.00 0.00 0.00 0.00 0.00 0.00 0.00 0.00 0.00 0.00 0.01 0.01 0.00 0.00 0.00 0.00 0.01 0.01 0.00 0.00 0.00 0.00 0.00 0.00 0.00 0.00 0.00 0.00 0.00 0.00 0.00 0.00 0.00 0.00 0.00 0.00 0.00 0.00
0.00 0.00 0.00 0.00 0.00 0.00 0.00 0.00 0.00 0.00 0.00 0.00 0.00 0.00 0.00 0.00 0.00 0.00 0.00 0.00 0.00 0.01 0.00 0.00 0.00 0.00 0.00 0.00 0.00 0.00 0.00 0.00 0.00 0.00 0.00 0.00 0.00 0.00 0.00 0.00 0.00 0.00
MSLP
1014.82 1014.90 1015.18 1015.38 1015.54 1015.70 1015.98 1016.26 1016.42 1016.70 1016.86 1017.10 1017.42 1017.54 1017.58 1017.50 1017.46 1017.54 1017.54 1017.58 1017.70 1017.82 1017.86 1017.86 1017.90 1017.94 1017.94 1018.02 1018.06 1018.10 1018.22 1018.30 1018.34 1018.42 1018.58 1018.70 1018.78 1018.78 1018.78 1018.66 1018.66 1018.66
1014.70 1014.74 1014.90 1015.10 1015.34 1015.66 1015.90 1016.06 1016.38 1016.54 1016.86 1017.06 1017.26 1017.42 1017.46 1017.50 1017.54 1017.54 1017.62 1017.66 1017.70 1017.82 1017.82 1017.86 1017.90 1017.98 1018.10 1018.18 1018.22 1018.30 1018.34 1018.38 1018.50 1018.38 1018.62 1018.78 1018.86 1018.86 1018.86 1018.82 1018.86 1018.82
1014.74 1014.86 1014.98 1015.10 1015.38 1015.70 1015.98 1016.10 1016.26 1016.46 1016.74 1017.02 1017.22 1017.38 1017.50 1017.46 1017.54 1017.50 1017.54 1017.70 1017.82 1017.86 1017.90 1017.94 1017.98 1018.02 1018.10 1018.18 1018.26 1018.42 1018.54 1018.62 1018.70 1018.66 1018.74 1018.90 1018.94 1019.02 1018.98 1018.94 1019.02 1019.10
1014.90 1014.94 1014.90 1014.98 1015.26 1015.66 1015.90 1016.14 1016.34 1016.50 1016.74 1017.14 1017.38 1017.38 1017.38 1017.50 1017.50 1017.54 1017.62 1017.70 1017.82 1017.90 1017.90 1017.90 1017.98 1018.02 1018.06 1018.14 1018.26 1018.46 1018.54 1018.62 1018.70 1018.74 1018.90 1018.98 1019.06 1019.10 1019.14 1019.10 1019.22 1019.30
1014.98 1014.94 1014.82 1015.02 1015.26 1015.58 1015.86 1016.22 1016.50 1016.66 1016.90 1017.14 1017.26 1017.34 1017.42 1017.54 1017.62 1017.62 1017.62 1017.70 1017.78 1017.94 1017.94 1018.02 1018.02 1018.02 1018.06 1018.18 1018.30 1018.54 1018.62 1018.74 1018.74 1018.90 1019.06 1019.18 1019.14 1019.18 1019.22 1019.22 1019.38 1019.46
1015.02 1014.82 1014.86 1015.14 1015.42 1015.70 1016.06 1016.30 1016.50 1016.78 1017.02 1017.22 1017.34 1017.34 1017.46 1017.54 1017.58 1017.62 1017.62 1017.74 1017.78 1017.90 1017.98 1017.98 1018.02 1018.02 1018.06 1018.14 1018.22 1018.42 1018.62 1018.78 1018.82 1018.90 1019.10 1019.22 1019.22 1019.10 1019.18 1019.38 1019.50 1019.58
1015.06 1014.94 1015.10 1015.26 1015.54 1015.74 1016.06 1016.30 1016.50 1016.82 1017.06 1017.14 1017.22 1017.42 1017.46 1017.58 1017.62 1017.58 1017.58 1017.58 1017.70 1017.82 1017.90 1017.98 1018.06 1018.14 1018.10 1018.18 1018.34 1018.50 1018.58 1018.66 1018.74 1018.94 1019.26 1019.34 1019.26 1019.30 1019.26 1019.38 1019.54 1019.70
1015.06 1015.06 1015.26 1015.38 1015.66 1015.86 1016.02 1016.26 1016.50 1016.78 1016.90 1017.06 1017.30 1017.34 1017.42 1017.50 1017.54 1017.54 1017.54 1017.54 1017.62 1017.70 1017.82 1017.90 1017.98 1018.06 1018.10 1018.26 1018.54 1018.70 1018.78 1018.74 1018.82 1018.98 1019.22 1019.38 1019.42 1019.66 1019.66 1019.58 1019.70 1019.94
1014.98 1015.18 1015.30 1015.46 1015.66 1015.82 1015.98 1016.14 1016.38 1016.58 1016.78 1017.06 1017.26 1017.34 1017.34 1017.38 1017.42 1017.50 1017.54 1017.54 1017.58 1017.66 1017.78 1017.90 1017.90 1018.06 1018.10 1018.30 1018.58 1018.74 1018.90 1018.94 1019.02 1019.18 1019.42 1019.58 1019.62 1019.70 1019.74 1019.78 1019.94 1020.06
1015.14 1015.34 1015.54 1015.62 1015.70 1015.78 1015.90 1015.98 1016.22 1016.50 1016.70 1016.94 1017.06 1017.22 1017.42 1017.34 1017.30 1017.46 1017.50 1017.54 1017.62 1017.70 1017.78 1017.86 1017.98 1018.10 1018.18 1018.30 1018.54 1018.70 1018.86 1019.02 1019.14 1019.30 1019.38 1019.46 1019.54 1019.58 1019.78 1019.90 1020.06 1020.26
1015.14 1015.26 1015.38 1015.46 1015.42 1015.46 1015.62 1015.82 1016.10 1016.42 1016.62 1016.78 1016.90 1017.14 1017.22 1017.26 1017.30 1017.34 1017.42 1017.50 1017.62 1017.70 1017.78 1017.90 1018.02 1018.14 1018.26 1018.38 1018.46 1018.62 1018.78 1018.90 1019.06 1019.22 1019.34 1019.38 1019.46 1019.58 1019.70 1019.86 1020.10 1020.22
1015.10 1014.94 1014.86 1014.94 1015.14 1015.26 1015.46 1015.74 1016.02 1016.30 1016.46 1016.58 1016.66 1016.90 1016.98 1017.06 1017.18 1017.26 1017.34 1017.46 1017.54 1017.62 1017.66 1017.86 1017.98 1018.18 1018.30 1018.42 1018.54 1018.66 1018.74 1018.86 1018.98 1019.10 1019.30 1019.38 1019.50 1019.62 1019.78 1019.90 1020.10 1020.18
1015.26 1015.10 1015.30 1015.38 1015.30 1015.38 1015.46 1015.70 1015.98 1016.22 1016.42 1016.58 1016.54 1016.74 1016.90 1017.02 1017.10 1017.26 1017.26 1017.34 1017.46 1017.54 1017.70 1017.86 1018.02 1018.22 1018.42 1018.54 1018.66 1018.78 1018.86 1019.02 1019.14 1019.22 1019.38 1019.50 1019.54 1019.66 1019.78 1019.90 1020.10 1020.18
1016.02 1016.26 1016.34 1016.34 1016.50 1016.14 1015.86 1015.98 1016.30 1016.50 1016.54 1016.62 1016.62 1016.82 1016.98 1017.10 1017.26 1017.30 1017.30 1017.38 1017.46 1017.62 1017.82 1018.02 1018.34 1018.82 1019.18 1019.38 1019.10 1019.18 1019.06 1019.22 1019.30 1019.50 1019.62 1019.74 1019.82 1019.86 1020.02 1020.30 1020.58 1020.74
1016.26 1016.66 1016.74 1016.78 1016.58 1016.98 1017.38 1017.62 1017.74 1017.62 1017.22 1016.94 1016.86 1016.90 1016.98 1017.10 1017.18 1017.26 1017.38 1017.62 1017.66 1017.78 1018.14 1018.70 1019.14 1019.50 1020.10 1020.58 1020.54 1020.34 1019.42 1019.46 1019.54 1019.70 1020.22 1020.42 1020.62 1020.78 1021.02 1021.14 1021.42 1021.78
1015.86 1015.94 1016.18 1016.50 1016.66 1016.66 1016.86 1016.86 1016.74 1017.18 1017.26 1017.30 1017.50 1017.54 1017.54 1017.58 1017.50 1017.42 1017.50 1017.74 1018.22 1018.58 1019.02 1019.38 1019.66 1019.58 1019.70 1020.06 1020.42 1020.14 1019.62 1019.50 1019.82 1020.46 1021.26 1021.46 1021.10 1020.86 1020.98 1021.34 1021.54 1021.54
1015.82 1015.90 1016.14 1016.30 1016.46 1016.66 1016.90 1017.14 1017.10 1017.06 1017.02 1017.02 1017.14 1017.30 1017.54 1017.74 1017.86 1017.90 1018.14 1018.38 1018.62 1019.10 1019.46 1019.42 1019.50 1019.70 1019.90 1020.42 1020.06 1019.90 1019.70 1019.70 1019.98 1020.74 1020.90 1020.54 1020.58 1020.78 1020.82 1020.90 1021.14 1021.22
1016.30 1016.22 1016.18 1016.26 1016.50 1016.74 1016.98 1017.06 1017.18 1017.38 1017.50 1017.42 1017.34 1017.46 1017.62 1017.82 1017.98 1018.06 1018.14 1018.26 1018.58 1018.90 1019.22 1019.34 1019.42 1019.26 1019.58 1019.90 1019.66 1019.90 1020.02 1019.86 1019.86 1020.10 1020.18 1020.34 1020.58 1020.66 1020.70 1020.82 1020.94 1020.94
1015.90 1016.02 1016.10 1016.26 1016.46 1016.50 1016.78 1017.02 1017.38 1017.66 1017.66 1017.62 1017.62 1017.58 1017.70 1017.86 1018.02 1018.06 1018.26 1018.42 1018.58 1018.86 1019.06 1019.22 1019.26 1019.26 1019.42 1019.46 1019.62 1019.98 1020.10 1019.90 1019.70 1019.78 1019.94 1020.14 1020.34 1020.54 1020.66 1020.78 1020.86 1020.78
1015.90 1015.98 1016.26 1016.38 1016.42 1016.66 1016.82 1017.14 1017.34 1017.54 1017.66 1017.70 1017.62 1017.74 1017.90 1018.06 1018.14 1018.26 1018.46 1018.70 1018.86 1019.10 1019.26 1019.34 1019.22 1019.10 1019.02 1019.22 1019.54 1019.94 1020.06 1019.86 1019.70 1019.62 1019.74 1019.90 1020.14 1020.30 1020.46 1020.70 1020.66 1020.70
1015.50 1015.94 1016.46 1016.74 1016.86 1016.98 1017.06 1017.10 1017.30 1017.78 1017.94 1017.86 1017.86 1018.02 1018.14 1018.22 1018.30 1018.42 1018.70 1018.82 1018.86 1018.90 1018.90 1018.86 1018.70 1018.86 1019.06 1019.22 1019.46 1019.70 1019.86 1019.90 1019.74 1019.62 1019.58 1019.74 1019.86 1020.02 1020.26 1020.42 1020.58 1020.66
1015.42 1015.70 1015.82 1015.98 1016.30 1016.62 1016.78 1017.22 1017.42 1017.38 1017.66 1017.86 1017.98 1018.10 1018.14 1018.10 1018.26 1018.42 1018.54 1018.66 1018.86 1018.82 1018.70 1018.78 1018.78 1018.94 1018.98 1019.10 1019.38 1019.58 1019.82 1019.90 1019.74 1019.58 1019.54 1019.58 1019.70 1019.82 1019.94 1020.06 1020.14 1020.14
1015.94 1015.90 1015.94 1015.90 1015.98 1016.06 1016.22 1016.58 1016.94 1017.18 1017.46 1017.66 1017.86 1017.94 1018.06 1018.14 1018.18 1018.18 1018.22 1018.46 1018.58 1018.62 1018.82 1018.82 1018.78 1019.02 1019.10 1019.30 1019.50 1019.98 1019.98 1019.78 1019.58 1019.46 1019.34 1019.38 1019.54 1019.74 1020.10 1020.22 1020.26 1020.14
1016.58 1016.50 1016.46 1016.38 1016.30 1016.34 1016.34 1016.26 1016.38 1016.70 1017.02 1017.26 1017.62 1017.78 1017.86 1017.86 1017.90 1017.98 1018.06 1018.02 1018.06 1018.14 1018.10 1018.22 1018.14 1018.50 1018.98 1019.30 1019.58 1019.78 1019.82 1019.62 1019.30 1019.22 1018.98 1019.02 1019.34 1019.82 1020.18 1020.54 1020.70 1020.42
1017.18 1017.10 1017.10 1017.06 1016.94 1016.86 1016.70 1016.66 1016.58 1016.50 1016.46 1016.86 1017.14 1017.30 1017.38 1017.50 1017.62 1017.70 1017.66 1017.78 1017.82 1017.94 1017.98 1018.14 1018.18 1018.46 1018.86 1019.06 1019.42 1019.70 1020.06 1019.98 1019.42 1019.02 1018.86 1018.98 1019.34 1019.94 1020.26 1020.70 1021.18 1021.22
1017.62 1017.62 1017.66 1017.58 1017.46 1017.26 1017.10 1016.94 1016.78 1016.66 1016.58 1016.46 1016.54 1016.62 1016.82 1017.10 1017.38 1017.42 1017.42 1017.46 1017.54 1017.74 1017.86 1017.90 1018.10 1018.38 1018.70 1019.02 1019.18 1019.50 1019.94 1019.78 1019.42 1019.30 1019.06 1018.82 1019.10 1019.82 1020.34 1020.82 1021.18 1021.70
Thickness
5637 5637 5637 5636 5635 5634 5633 5632 5631 5629 5627 5627 5625 5624 5624 5625 5625 5625 5624 5624 5624 5623 5622 5622 5622 5621 5621 5620 5620 5619 5620 5618 5618 5617 5615 5614 5613 5613 5613 5614 5615 5614
5636 5636 5636 5634 5633 5631 5630 5630 5629 5627 5625 5624 5624 5623 5623 5622 5622 5622 5622 5621 5621 5620 5620 5620 5619 5619 5618 5618 5617 5617 5616 5616 5615 5615 5613 5612 5611 5611 5611 5611 5611 5611
5634 5634 5633 5631 5630 5628 5627 5627 5626 5625 5623 5623 5622 5621 5620 5619 5620 5620 5620 5619 5618 5618 5618 5617 5617 5617 5617 5616 5615 5614 5614 5613 5612 5612 5611 5610 5609 5609 5609 5609 5608 5607
5630 5630 5630 5629 5627 5625 5623 5623 5623 5622 5621 5619 5619 5618 5617 5617 5617 5617 5617 5617 5616 5615 5615 5615 5615 5615 5615 5615 5614 5613 5612 5611 5611 5610 5609 5608 5607 5607 5607 5606 5605 5604
5626 5627 5628 5626 5624 5622 5621 5620 5618 5618 5618 5616 5616 5616 5615 5615 5614 5615 5615 5614 5614 5613 5613 5612 5612 5613 5613 5613 5612 5611 5609 5609 5608 5608 5606 5605 5605 5605 5605 5604 5603 5602
5622 5624 5624 5622 5621 5619 5617 5616 5615 5615 5613 5613 5613 5613 5613 5612 5612 5612 5613 5613 5612 5611 5610 5611 5611 5611 5611 5611 5611 5609 5608 5606 5606 5605 5603 5602 5603 5603 5603 5601 5600 5600
5619 5619 5619 5618 5617 5615 5614 5614 5613 5611 5610 5611 5611 5610 5610 5609 5610 5611 5611 5611 5611 5610 5610 5609 5609 5609 5609 5609 5608 5607 5606 5605 5604 5602 5600 5600 5600 5599 5600 5599 5598 5597
5614 5614 5614 5613 5612 5611 5611 5611 5610 5609 5609 5608 5608 5608 5608 5608 5608 5609 5609 5609 5609 5608 5608 5608 5608 5608 5607 5606 5604 5603 5603 5602 5602 5600 5597 5597 5596 5595 5596 5596 5595 5594
5611 5610 5610 5609 5609 5608 5609 5610 5609 5608 5607 5607 5606 5605 5606 5606 5607 5607 5607 5607 5607 5606 5607 5606 5606 5606 5605 5604 5602 5600 5600 5599 5598 5597 5595 5595 5594 5593 5593 5593 5592 5590
5608 5607 5607 5607 5608 5608 5609 5609 5609 5608 5606 5606 5605 5604 5604 5604 5605 5605 5605 5605 5605 5604 5604 5604 5604 5603 5603 5602 5600 5598 5597 5596 5595 5595 5594 5593 5593 5592 5591 5589 5588 5587
5606 5606 5607 5608 5609 5609 5610 5610 5608 5607 5605 5605 5604 5603 5602 5602 5603 5603 5603 5603 5603 5603 5602 5602 5601 5600 5599 5599 5598 5596 5596 5594 5594 5593 5592 5592 5591 5590 5589 5587 5585 5584
5605 5607 5608 5609 5609 5609 5609 5607 5606 5605 5603 5602 5603 5602 5601 5601 5601 5601 5601 5601 5601 5601 5600 5598 5597 5597 5596 5595 5594 5594 5593 5592 5592 5592 5590 5590 5589 5587 5586 5584 5582 5581
5601 5601 5601 5601 5602 5603 5604 5603 5601 5599 5598 5598 5599 5598 5598 5599 5598 5598 5599 5599 5598 5598 5596 5595 5594 5593 5592 5591 5590 5590 5590 5590 5589 5588 5587 5586 5585 5584 5583 5581 5579 5578
5593 5591 5590 5591 5592 5594 5596 5594 5590 5589 5591 5593 5594 5595 5595 5595 5595 5595 5596 5596 5595 5594 5592 5591 5589 5585 5582 5581 5580 5582 5585 5585 5585 5584 5583 5581 5580 5578 5576 5574 5571 5569
5591 5589 5588 5589 5590 5590 5589 5586 5583 5583 5587 5589 5590 5591 5591 5592 5593 5593 5593 5592 5590 5590 5587 5584 5582 5579 5576 5572 5570 5574 5579 5580 5580 5577 5573 5569 5569 5570 5569 5566 5562 5561
5591 5591 5590 5589 5591 5590 5587 5585 5584 5584 5585 5586 5586 5586 5587 5588 5588 5589 5589 5587 5585 5582 5580 5577 5575 5573 5572 5570 5569 5572 5576 5577 5575 5569 5564 5561 5563 5565 5564 5561 5558 5558
5587 5587 5587 5587 5588 5587 5585 5583 5583 5582 5583 5584 5584 5584 5584 5583 5583 5583 5583 5582 5579 5576 5574 5572 5571 5569 5568 5566 5568 5571 5572 5573 5570 5565 5562 5562 5562 5563 5562 5559 5557 5557
5582 5582 5583 5583 5583 5582 5581 5579 5578 5577 5577 5579 5580 5580 5580 5579 5579 5579 5579 5578 5576 5573 5570 5569 5568 5568 5567 5565 5567 5567 5566 5568 5569 5565 5563 5562 5560 5559 5559 5558 5556 5555
5580 5581 5580 5579 5579 5579 5578 5577 5574 5572 5572 5574 5575 5576 5576 5574 5575 5575 5574 5573 5572 5569 5567 5566 5565 5566 5565 5564 5564 5562 5561 5564 5566 5565 5563 5560 5558 5557 5555 5553 5553 5552
5580 5578 5576 5576 5576 5576 5575 5573 5571 5569 5568 5569 5570 5570 5570 5569 5569 5569 5567 5565 5565 5564 5562 5562 5563 5563 5563 5562 5560 5559 5558 5559 5561 5562 5561 5558 5556 5554 5551 5550 5549 5548
5579 5576 5574 5572 5570 5568 5568 5568 5566 5564 5563 5563 5563 5562 5563 5563 5563 5562 5560 5558 5559 5560 5560 5561 5561 5561 5560 5558 5557 5555 5554 5554 5555 5557 5556 5555 5553 5551 5549 5547 5545 5544
5574 5573 5572 5570 5568 5566 5566 5564 5562 5560 5559 5558 5557 5557 5557 5558 5557 5556 5556 5554 5553 5555 5556 5556 5556 5556 5555 5554 5552 5551 5549 5549 5550 5551 5551 5550 5549 5547 5546 5544 5542 5541
5565 5566 5566 5566 5565 5565 5564 5563 5561 5558 5556 5554 5553 5552 5552 5552 5552 5552 5552 5551 5550 5550 5551 5551 5551 5550 5548 5547 5546 5544 5543 5544 5545 5545 5546 5546 5544 5543 5541 5538 5536 5537
5554 5555 5556 5557 5557 5558 5558 5559 5558 5556 5554 5552 5550 5549 5549 5549 5548 5549 5549 5549 5549 5548 5549 5549 5549 5547 5544 5541 5538 5537 5536 5538 5539 5540 5541 5542 5540 5537 5534 5531 5528 5529
5543 5544 5545 5546 5547 5548 5550 5551 5551 5551 5551 5550 5548 5547 5547 5547 5545 5545 5546 5546 5545 5544 5545 5545 5543 5540 5538 5535 5533 5531 5529 5530 5532 5534 5535 5536 5534 5530 5527 5523 5520 5519
5534 5535 5535 5535 5536 5538 5540 5542 5543 5544 5545 5545 5546 5546 5545 5543 5541 5540 5540 5540 5538 5538 5539 5539 5536 5532 5530 5528 5527 5525 5524 5524 5524 5525 5527 5529 5528 5525 5521 5516 5513 5510